Time,TemperatureF,DewpointF,PressureIn,WindDirection,WindDirectionDegrees,WindSpeedMPH,WindSpeedGustMPH,Humidity,HourlyPrecipIn,Conditions,Clouds,dailyrainin,SoftwareType,DateUTC
2013-07-28 00:01:00,78.5,74.3,29.98,ESE,114,0.0,0.0,87,0.00,,SKC,0.00,VWS V14.01,2013-07-28 04:01:00,
2013-07-28 00:02:00,78.4,74.2,29.98,ESE,115,0.0,0.0,87,0.00,,SKC,0.00,VWS V14.01,2013-07-28 04:02:00,
2013-07-28 00:07:00,78.2,74.0,29.98,ESE,115,0.0,0.0,87,0.00,,SKC,0.00,VWS V14.01,2013-07-28 04:07:00,
2013-07-28 00:12:00,78.0,74.2,29.98,ESE,114,0.0,0.0,88,0.00,,SKC,0.00,VWS V14.01,2013-07-28 04:12:00,
2013-07-28 00:17:00,77.8,74.0,29.98,ESE,115,0.0,0.0,88,0.00,,SKC,0.00,VWS V14.01,2013-07-28 04:17:00,
2013-07-28 00:22:00,77.6,74.1,29.98,ESE,115,0.0,0.0,89,0.00,,SKC,0.00,VWS V14.01,2013-07-28 04:22:00,
2013-07-28 00:27:00,77.4,73.9,29.98,ESE,115,0.0,0.0,89,0.00,,SKC,0.00,VWS V14.01,2013-07-28 04:27:00,
2013-07-28 00:32:00,77.2,74.0,29.98,ESE,114,0.0,0.0,90,0.00,,SKC,0.00,VWS V14.01,2013-07-28 04:32:00,
2013-07-28 00:37:00,77.2,74.0,29.98,ESE,115,0.0,0.0,90,0.00,,SKC,0.00,VWS V14.01,2013-07-28 04:37:00,
2013-07-28 00:42:00,77.1,73.9,29.98,ESE,114,0.0,0.0,90,0.00,,SKC,0.00,VWS V14.01,2013-07-28 04:42:00,
2013-07-28 00:47:00,77.1,73.9,29.98,ESE,115,0.0,0.0,90,0.00,,SKC,0.00,VWS V14.01,2013-07-28 04:47:00,
2013-07-28 00:52:00,77.2,74.4,29.98,ESE,114,0.0,0.0,91,0.00,,SKC,0.00,VWS V14.01,2013-07-28 04:52:00,
2013-07-28 00:57:00,77.1,74.3,29.98,ESE,114,0.0,0.0,91,0.00,,SKC,0.00,VWS V14.01,2013-07-28 04:57:00,
2013-07-28 01:02:00,76.9,74.1,29.97,ESE,114,0.0,0.0,91,0.00,,SKC,0.00,VWS V14.01,2013-07-28 05:02:00,
2013-07-28 01:07:00,76.9,74.1,29.97,ESE,114,0.0,0.0,91,0.00,,SKC,0.00,VWS V14.01,2013-07-28 05:07:00,
2013-07-28 01:12:00,77.0,74.2,29.97,ESE,115,0.0,0.0,91,0.00,,SKC,0.00,VWS V14.01,2013-07-28 05:12:00,
2013-07-28 01:17:00,77.1,74.3,29.97,ESE,115,0.0,0.0,91,0.00,,SKC,0.00,VWS V14.01,2013-07-28 05:17:00,
2013-07-28 01:22:00,77.2,74.4,29.97,ESE,114,0.0,0.0,91,0.00,,SKC,0.00,VWS V14.01,2013-07-28 05:22:00,
2013-07-28 01:27:00,77.2,74.4,29.97,ESE,114,0.0,0.0,91,0.00,,SKC,0.00,VWS V14.01,2013-07-28 05:27:00,
2013-07-28 01:32:00,77.2,74.7,29.97,ESE,114,0.0,0.0,92,0.00,,SKC,0.00,VWS V14.01,2013-07-28 05:32:00,
2013-07-28 01:37:00,77.1,74.6,29.97,ESE,115,0.0,0.0,92,0.00,,SKC,0.00,VWS V14.01,2013-07-28 05:37:00,
2013-07-28 01:42:00,77.1,74.6,29.97,ESE,115,0.0,0.0,92,0.00,,SKC,0.00,VWS V14.01,2013-07-28 05:42:00,
2013-07-28 01:47:00,76.9,74.4,29.96,ESE,115,0.0,0.0,92,0.00,,SKC,0.00,VWS V14.01,2013-07-28 05:47:00,
2013-07-28 01:52:00,76.9,74.4,29.96,ESE,114,0.0,0.0,92,0.00,,SKC,0.00,VWS V14.01,2013-07-28 05:52:00,
2013-07-28 01:57:00,76.8,74.3,29.96,ESE,114,0.0,0.0,92,0.00,,SKC,0.00,VWS V14.01,2013-07-28 05:57:00,
2013-07-28 02:02:00,76.7,74.2,29.96,ESE,114,0.0,0.0,92,0.00,,SKC,0.00,VWS V14.01,2013-07-28 06:02:00,
2013-07-28 02:07:00,76.4,73.9,29.96,ESE,114,0.0,0.0,92,0.00,,SKC,0.00,VWS V14.01,2013-07-28 06:07:00,
2013-07-28 02:12:00,76.3,74.1,29.96,ESE,114,0.0,0.0,93,0.00,,SKC,0.00,VWS V14.01,2013-07-28 06:12:00,
2013-07-28 02:17:00,76.1,73.9,29.96,ESE,114,0.0,0.0,93,0.00,,SKC,0.00,VWS V14.01,2013-07-28 06:17:00,
2013-07-28 02:22:00,76.1,73.9,29.95,ESE,114,0.0,0.0,93,0.00,,SKC,0.00,VWS V14.01,2013-07-28 06:22:00,
2013-07-28 02:27:00,76.0,73.8,29.95,ESE,114,0.0,0.0,93,0.00,,SKC,0.00,VWS V14.01,2013-07-28 06:27:00,
2013-07-28 02:32:00,75.9,73.7,29.95,ESE,115,0.0,0.0,93,0.00,,SKC,0.00,VWS V14.01,2013-07-28 06:32:00,
2013-07-28 02:37:00,75.9,74.1,29.95,ESE,114,0.0,0.0,94,0.00,,SKC,0.00,VWS V14.01,2013-07-28 06:37:00,
2013-07-28 02:42:00,75.9,74.1,29.94,ESE,115,0.0,0.0,94,0.00,,SKC,0.00,VWS V14.01,2013-07-28 06:42:00,
2013-07-28 02:47:00,76.0,74.2,29.94,ESE,115,0.0,0.0,94,0.00,,SKC,0.00,VWS V14.01,2013-07-28 06:47:00,
2013-07-28 02:52:00,76.0,74.2,29.94,ESE,114,0.0,0.0,94,0.00,,SKC,0.00,VWS V14.01,2013-07-28 06:52:00,
2013-07-28 02:57:00,76.2,74.3,29.94,ESE,115,0.0,0.0,94,0.00,,SKC,0.00,VWS V14.01,2013-07-28 06:57:00,
2013-07-28 03:02:00,76.3,74.4,29.94,ESE,115,0.0,0.0,94,0.00,,SKC,0.00,VWS V14.01,2013-07-28 07:02:00,
2013-07-28 03:07:00,76.2,74.3,29.94,ESE,114,0.0,0.0,94,0.00,,SKC,0.00,VWS V14.01,2013-07-28 07:07:00,
2013-07-28 03:12:00,76.2,74.3,29.94,ESE,114,0.0,0.0,94,0.00,,SKC,0.00,VWS V14.01,2013-07-28 07:12:00,
2013-07-28 03:17:00,76.2,74.3,29.94,ESE,115,0.0,0.0,94,0.00,,SKC,0.00,VWS V14.01,2013-07-28 07:17:00,
2013-07-28 03:22:00,76.1,74.2,29.94,ESE,114,0.0,0.0,94,0.00,,SKC,0.00,VWS V14.01,2013-07-28 07:22:00,
2013-07-28 03:27:00,76.0,74.2,29.94,ESE,114,0.0,0.0,94,0.00,,SKC,0.00,VWS V14.01,2013-07-28 07:27:00,
2013-07-28 03:32:00,76.0,74.2,29.94,ESE,114,0.0,0.0,94,0.00,,SKC,0.00,VWS V14.01,2013-07-28 07:32:00,
2013-07-28 03:37:00,76.0,74.2,29.94,ESE,115,0.0,0.0,94,0.00,,SKC,0.00,VWS V14.01,2013-07-28 07:37:00,
2013-07-28 03:42:00,75.9,74.1,29.94,ESE,114,0.0,0.0,94,0.00,,SKC,0.00,VWS V14.01,2013-07-28 07:42:00,
2013-07-28 03:47:00,75.9,74.1,29.94,ESE,114,0.0,0.0,94,0.00,,SKC,0.00,VWS V14.01,2013-07-28 07:47:00,
2013-07-28 03:52:00,75.8,73.9,29.94,ESE,114,0.0,0.0,94,0.00,,SKC,0.00,VWS V14.01,2013-07-28 07:52:00,
2013-07-28 03:57:00,75.7,73.8,29.94,ESE,114,0.0,0.0,94,0.00,,SKC,0.00,VWS V14.01,2013-07-28 07:57:00,
2013-07-28 04:02:00,75.6,73.8,29.94,ESE,114,0.0,0.0,94,0.00,,SKC,0.00,VWS V14.01,2013-07-28 08:02:00,
2013-07-28 04:07:00,75.5,74.0,29.94,ESE,114,0.0,0.0,95,0.00,,SKC,0.00,VWS V14.01,2013-07-28 08:07:00,
2013-07-28 04:12:00,75.8,74.3,29.94,ESE,114,0.0,0.0,95,0.00,,SKC,0.00,VWS V14.01,2013-07-28 08:12:00,
2013-07-28 04:17:00,75.7,74.2,29.94,ESE,115,0.0,0.0,95,0.00,,SKC,0.00,VWS V14.01,2013-07-28 08:17:00,
2013-07-28 04:22:00,75.5,74.0,29.94,ESE,115,0.0,0.0,95,0.00,,SKC,0.00,VWS V14.01,2013-07-28 08:22:00,
2013-07-28 04:27:00,75.7,74.2,29.94,ESE,115,0.0,0.0,95,0.00,,SKC,0.00,VWS V14.01,2013-07-28 08:27:00,
2013-07-28 04:32:00,75.7,74.2,29.94,ESE,114,0.0,0.0,95,0.00,,SKC,0.00,VWS V14.01,2013-07-28 08:32:00,
2013-07-28 04:37:00,75.7,74.2,29.94,ESE,115,0.0,0.0,95,0.00,,SKC,0.00,VWS V14.01,2013-07-28 08:37:00,
2013-07-28 04:42:00,75.6,74.1,29.94,SW,232,0.0,0.0,95,0.00,,SKC,0.00,VWS V14.01,2013-07-28 08:42:00,
2013-07-28 04:47:00,75.6,74.1,29.95,SW,232,0.0,0.0,95,0.00,,SKC,0.00,VWS V14.01,2013-07-28 08:47:00,
2013-07-28 04:52:00,75.6,74.1,29.95,SW,232,0.0,0.0,95,0.00,,SKC,0.00,VWS V14.01,2013-07-28 08:52:00,
2013-07-28 04:57:00,75.7,74.2,29.95,SW,231,0.0,0.0,95,0.00,,SKC,0.00,VWS V14.01,2013-07-28 08:57:00,
2013-07-28 05:02:00,75.6,74.1,29.95,SW,232,0.0,0.0,95,0.00,,SKC,0.00,VWS V14.01,2013-07-28 09:02:00,
2013-07-28 05:07:00,75.7,74.2,29.95,SW,223,0.0,0.0,95,0.00,,SKC,0.00,VWS V14.01,2013-07-28 09:07:00,
2013-07-28 05:12:00,76.1,74.6,29.95,ENE,69,0.0,0.0,95,0.00,,SKC,0.00,VWS V14.01,2013-07-28 09:12:00,
2013-07-28 05:17:00,76.2,74.7,29.95,ENE,69,0.0,0.0,95,0.00,,SKC,0.00,VWS V14.01,2013-07-28 09:17:00,
2013-07-28 05:22:00,76.3,74.8,29.95,ENE,76,0.0,0.0,95,0.00,,SKC,0.00,VWS V14.01,2013-07-28 09:22:00,
2013-07-28 05:27:00,76.3,74.8,29.95,ENE,71,0.0,0.0,95,0.00,,SKC,0.00,VWS V14.01,2013-07-28 09:27:00,
2013-07-28 05:32:00,76.3,74.8,29.95,ENE,71,0.0,0.0,95,0.00,,SKC,0.00,VWS V14.01,2013-07-28 09:32:00,
2013-07-28 05:37:00,76.2,74.7,29.96,ENE,71,0.0,0.0,95,0.00,,SKC,0.00,VWS V14.01,2013-07-28 09:37:00,
2013-07-28 05:42:00,76.0,74.5,29.96,ENE,71,0.0,0.0,95,0.00,,SKC,0.00,VWS V14.01,2013-07-28 09:42:00,
2013-07-28 05:47:00,76.0,74.5,29.96,ENE,71,0.0,0.0,95,0.00,,SKC,0.00,VWS V14.01,2013-07-28 09:47:00,
2013-07-28 05:52:00,75.9,74.4,29.96,ENE,71,0.0,0.0,95,0.00,,SKC,0.00,VWS V14.01,2013-07-28 09:52:00,
2013-07-28 05:57:00,75.7,74.2,29.96,ENE,71,0.0,0.0,95,0.00,,SKC,0.00,VWS V14.01,2013-07-28 09:57:00,
2013-07-28 06:02:00,75.7,74.2,29.96,ENE,71,0.0,0.0,95,0.00,,SKC,0.00,VWS V14.01,2013-07-28 10:02:00,
2013-07-28 06:07:00,75.9,74.4,29.96,ENE,71,0.0,0.0,95,0.00,,SKC,0.00,VWS V14.01,2013-07-28 10:07:00,
2013-07-28 06:12:00,75.9,74.4,29.96,ENE,71,0.0,0.0,95,0.00,,SKC,0.00,VWS V14.01,2013-07-28 10:12:00,
2013-07-28 06:17:00,76.0,74.5,29.96,ENE,71,0.0,0.0,95,0.00,,SKC,0.00,VWS V14.01,2013-07-28 10:17:00,
2013-07-28 06:22:00,75.9,74.4,29.96,ENE,71,0.0,0.0,95,0.00,,SKC,0.00,VWS V14.01,2013-07-28 10:22:00,
2013-07-28 06:27:00,75.7,74.2,29.96,ENE,71,0.0,0.0,95,0.00,,SKC,0.00,VWS V14.01,2013-07-28 10:27:00,
2013-07-28 06:32:00,75.4,73.9,29.96,ENE,71,0.0,0.0,95,0.00,,SKC,0.00,VWS V14.01,2013-07-28 10:32:00,
2013-07-28 06:37:00,75.4,73.9,29.96,ENE,71,0.0,0.0,95,0.00,,SKC,0.00,VWS V14.01,2013-07-28 10:37:00,
2013-07-28 06:42:00,75.3,73.8,29.96,ENE,71,0.0,0.0,95,0.00,,SKC,0.00,VWS V14.01,2013-07-28 10:42:00,
2013-07-28 06:47:00,75.3,73.8,29.97,ENE,71,0.0,0.0,95,0.00,,SKC,0.00,VWS V14.01,2013-07-28 10:47:00,
2013-07-28 06:52:00,75.4,73.9,29.97,ENE,71,0.0,0.0,95,0.00,,SKC,0.00,VWS V14.01,2013-07-28 10:52:00,
2013-07-28 06:57:00,75.6,74.1,29.97,ENE,71,0.0,0.0,95,0.00,,SKC,0.00,VWS V14.01,2013-07-28 10:57:00,
2013-07-28 07:02:00,75.8,74.6,29.97,ENE,71,0.0,0.0,96,0.00,,SKC,0.00,VWS V14.01,2013-07-28 11:02:00,
2013-07-28 07:07:00,75.7,74.2,29.97,ENE,71,0.0,0.0,95,0.00,,SKC,0.00,VWS V14.01,2013-07-28 11:07:00,
2013-07-28 07:12:00,76.0,74.8,29.97,ENE,71,0.0,0.0,96,0.00,,SKC,0.00,VWS V14.01,2013-07-28 11:12:00,
2013-07-28 07:17:00,76.4,75.2,29.97,ENE,69,0.0,0.0,96,0.00,,SKC,0.00,VWS V14.01,2013-07-28 11:17:00,
2013-07-28 07:22:00,76.8,75.3,29.98,ENE,68,0.0,0.0,95,0.00,,SKC,0.00,VWS V14.01,2013-07-28 11:22:00,
2013-07-28 07:27:00,77.2,75.7,29.98,ENE,69,0.0,0.0,95,0.00,,SKC,0.00,VWS V14.01,2013-07-28 11:27:00,
2013-07-28 07:32:00,77.5,76.0,29.98,ENE,69,0.0,0.0,95,0.00,,SKC,0.00,VWS V14.01,2013-07-28 11:32:00,
2013-07-28 07:37:00,77.9,76.0,29.98,ENE,69,0.0,0.0,94,0.00,,SKC,0.00,VWS V14.01,2013-07-28 11:37:00,
2013-07-28 07:42:00,78.5,76.6,29.99,ENE,69,0.0,0.0,94,0.00,,SKC,0.00,VWS V14.01,2013-07-28 11:42:00,
2013-07-28 07:47:00,79.3,77.4,29.99,ENE,69,0.0,0.0,94,0.00,,SKC,0.00,VWS V14.01,2013-07-28 11:47:00,
2013-07-28 07:52:00,80.0,78.1,29.98,ENE,69,0.0,0.0,94,0.00,,SKC,0.00,VWS V14.01,2013-07-28 11:52:00,
2013-07-28 07:57:00,80.3,77.8,29.98,East,87,0.0,0.0,92,0.00,,SKC,0.00,VWS V14.01,2013-07-28 11:57:00,
2013-07-28 08:02:00,80.5,77.6,29.99,East,88,0.0,0.0,91,0.00,,SKC,0.00,VWS V14.01,2013-07-28 12:02:00,
2013-07-28 08:07:00,81.1,77.6,29.99,ESE,121,0.0,0.0,89,0.00,,SKC,0.00,VWS V14.01,2013-07-28 12:07:00,
2013-07-28 08:12:00,81.3,77.4,29.99,ESE,105,0.0,0.0,88,0.00,,SKC,0.00,VWS V14.01,2013-07-28 12:12:00,
2013-07-28 08:17:00,81.6,77.0,29.99,ENE,67,0.0,0.0,86,0.00,,SKC,0.00,VWS V14.01,2013-07-28 12:17:00,
2013-07-28 08:22:00,82.1,77.2,29.99,SE,124,0.0,0.0,85,0.00,,SKC,0.00,VWS V14.01,2013-07-28 12:22:00,
2013-07-28 08:27:00,82.6,77.3,29.99,ESE,123,0.0,0.0,84,0.00,,SKC,0.00,VWS V14.01,2013-07-28 12:27:00,
2013-07-28 08:32:00,83.1,77.0,29.99,ESE,105,0.0,0.0,82,0.00,,SKC,0.00,VWS V14.01,2013-07-28 12:32:00,
2013-07-28 08:37:00,83.9,77.4,29.99,ENE,59,0.0,0.0,81,0.00,,SKC,0.00,VWS V14.01,2013-07-28 12:37:00,
2013-07-28 08:42:00,84.2,77.0,30.00,East,97,0.0,0.0,79,0.00,,SKC,0.00,VWS V14.01,2013-07-28 12:42:00,
2013-07-28 08:47:00,83.9,76.3,30.00,ENE,64,0.0,0.0,78,0.00,,SKC,0.00,VWS V14.01,2013-07-28 12:47:00,
2013-07-28 08:52:00,84.2,76.6,30.00,ESE,111,0.0,0.0,78,0.00,,SKC,0.00,VWS V14.01,2013-07-28 12:52:00,
2013-07-28 08:57:00,84.6,77.4,30.00,East,83,0.0,0.0,79,0.00,,SKC,0.00,VWS V14.01,2013-07-28 12:57:00,
2013-07-28 09:02:00,84.5,76.9,30.00,SE,126,0.0,0.0,78,0.00,,SKC,0.00,VWS V14.01,2013-07-28 13:02:00,
2013-07-28 09:07:00,84.4,76.4,30.00,SE,135,1.0,2.0,77,0.00,,SKC,0.00,VWS V14.01,2013-07-28 13:07:00,
2013-07-28 09:12:00,84.7,76.7,30.00,East,81,0.0,2.0,77,0.00,,SKC,0.00,VWS V14.01,2013-07-28 13:12:00,
2013-07-28 09:17:00,85.0,76.2,30.00,NE,54,0.0,2.0,75,0.00,,SKC,0.00,VWS V14.01,2013-07-28 13:17:00,
2013-07-28 09:22:00,85.0,75.8,30.00,NNE,19,0.0,2.0,74,0.00,,SKC,0.00,VWS V14.01,2013-07-28 13:22:00,
2013-07-28 09:27:00,85.7,76.1,30.00,SE,144,0.0,2.0,73,0.00,,SKC,0.00,VWS V14.01,2013-07-28 13:27:00,
2013-07-28 09:32:00,85.3,75.2,30.00,SE,132,0.0,0.0,72,0.00,,SKC,0.00,VWS V14.01,2013-07-28 13:32:00,
2013-07-28 09:37:00,84.9,75.7,30.00,ESE,115,0.0,0.0,74,0.00,,SKC,0.00,VWS V14.01,2013-07-28 13:37:00,
2013-07-28 09:42:00,85.2,75.6,30.00,NW,326,0.0,0.0,73,0.00,,SKC,0.00,VWS V14.01,2013-07-28 13:42:00,
2013-07-28 09:47:00,85.1,75.5,30.00,WNW,301,0.0,0.0,73,0.00,,SKC,0.00,VWS V14.01,2013-07-28 13:47:00,
2013-07-28 09:52:00,84.7,75.1,30.00,WSW,246,0.0,0.0,73,0.00,,SKC,0.00,VWS V14.01,2013-07-28 13:52:00,
2013-07-28 09:57:00,85.5,75.4,30.00,East,89,0.0,4.0,72,0.00,,SKC,0.00,VWS V14.01,2013-07-28 13:57:00,
2013-07-28 10:02:00,85.9,75.4,30.00,ENE,75,0.0,4.0,71,0.00,,SKC,0.00,VWS V14.01,2013-07-28 14:02:00,
2013-07-28 10:07:00,87.1,76.6,30.00,East,86,2.0,4.0,71,0.00,,SKC,0.00,VWS V14.01,2013-07-28 14:07:00,
2013-07-28 10:12:00,87.2,75.4,30.00,East,90,0.0,6.0,68,0.00,,SKC,0.00,VWS V14.01,2013-07-28 14:12:00,
2013-07-28 10:17:00,87.2,75.8,30.00,North,11,0.0,7.0,69,0.00,,SKC,0.00,VWS V14.01,2013-07-28 14:17:00,
2013-07-28 10:22:00,87.9,76.5,30.00,NE,44,0.0,7.0,69,0.00,,SKC,0.00,VWS V14.01,2013-07-28 14:22:00,
2013-07-28 10:27:00,88.4,75.6,30.00,SSW,213,0.0,7.0,66,0.00,,SKC,0.00,VWS V14.01,2013-07-28 14:27:00,
2013-07-28 10:32:00,88.9,76.5,30.00,SW,217,3.0,4.0,67,0.00,,SKC,0.00,VWS V14.01,2013-07-28 14:32:00,
2013-07-28 10:37:00,88.9,76.5,30.00,WSW,257,4.0,4.0,67,0.00,,SKC,0.00,VWS V14.01,2013-07-28 14:37:00,
2013-07-28 10:42:00,87.6,76.2,30.01,SW,232,0.0,4.0,69,0.00,,SKC,0.00,VWS V14.01,2013-07-28 14:42:00,
2013-07-28 10:47:00,87.1,76.1,30.01,WSW,244,1.0,4.0,70,0.00,,SKC,0.00,VWS V14.01,2013-07-28 14:47:00,
2013-07-28 10:52:00,86.9,75.9,30.01,SW,232,4.0,5.0,70,0.00,,SKC,0.00,VWS V14.01,2013-07-28 14:52:00,
2013-07-28 10:57:00,86.2,75.3,30.01,SE,138,0.0,5.0,70,0.00,,SKC,0.00,VWS V14.01,2013-07-28 14:57:00,
2013-07-28 11:02:00,86.2,75.3,30.01,SSE,147,0.0,0.0,70,0.00,,SKC,0.00,VWS V14.01,2013-07-28 15:02:00,
2013-07-28 11:08:00,86.0,74.2,30.01,SSE,148,0.0,0.0,68,0.00,,SKC,0.00,VWS V14.01,2013-07-28 15:08:00,
2013-07-28 11:13:00,87.1,75.7,30.01,NE,42,0.0,0.0,69,0.00,,SKC,0.00,VWS V14.01,2013-07-28 15:13:00,
2013-07-28 11:18:00,87.9,74.7,30.01,NNW,336,1.0,4.0,65,0.00,,SKC,0.00,VWS V14.01,2013-07-28 15:18:00,
2013-07-28 11:23:00,88.5,74.8,30.01,SW,223,0.0,4.0,64,0.00,,SKC,0.00,VWS V14.01,2013-07-28 15:23:00,
2013-07-28 11:28:00,89.4,73.7,30.01,SW,223,1.0,4.0,60,0.00,,SKC,0.00,VWS V14.01,2013-07-28 15:28:00,
2013-07-28 11:33:00,89.5,74.3,30.00,NW,318,1.0,4.0,61,0.00,,SKC,0.00,VWS V14.01,2013-07-28 15:33:00,
2013-07-28 11:38:00,90.3,74.5,30.00,South,180,2.0,4.0,60,0.00,,SKC,0.00,VWS V14.01,2013-07-28 15:38:00,
2013-07-28 11:43:00,90.7,74.4,30.00,South,172,5.0,6.0,59,0.00,,SKC,0.00,VWS V14.01,2013-07-28 15:43:00,
2013-07-28 11:48:00,90.5,74.7,30.01,SW,221,0.0,6.0,60,0.00,,SKC,0.00,VWS V14.01,2013-07-28 15:48:00,
2013-07-28 11:53:00,90.6,74.8,30.01,SSE,148,0.0,6.0,60,0.00,,SKC,0.00,VWS V14.01,2013-07-28 15:53:00,
2013-07-28 11:58:00,90.3,74.5,30.01,SW,236,2.0,6.0,60,0.00,,SKC,0.00,VWS V14.01,2013-07-28 15:58:00,
2013-07-28 12:03:00,90.1,74.8,30.01,West,270,2.0,4.0,61,0.00,,SKC,0.00,VWS V14.01,2013-07-28 16:03:00,
2013-07-28 12:08:00,90.0,75.2,30.01,SW,221,2.0,5.0,62,0.00,,SKC,0.00,VWS V14.01,2013-07-28 16:08:00,
2013-07-28 12:13:00,89.4,74.7,30.01,SW,218,1.0,5.0,62,0.00,,SKC,0.00,VWS V14.01,2013-07-28 16:13:00,
2013-07-28 12:18:00,89.1,75.3,30.01,SW,229,2.0,5.0,64,0.00,,SKC,0.00,VWS V14.01,2013-07-28 16:18:00,
2013-07-28 12:23:00,88.9,75.2,30.01,South,191,0.0,5.0,64,0.00,,SKC,0.00,VWS V14.01,2013-07-28 16:23:00,
2013-07-28 12:28:00,88.8,75.5,30.00,SSW,207,2.0,6.0,65,0.00,,SKC,0.00,VWS V14.01,2013-07-28 16:28:00,
2013-07-28 12:33:00,88.6,74.4,30.00,ESE,105,0.0,1.0,63,0.00,,SKC,0.00,VWS V14.01,2013-07-28 16:33:00,
2013-07-28 12:38:00,88.6,74.9,30.00,SSE,148,0.0,2.0,64,0.00,,SKC,0.00,VWS V14.01,2013-07-28 16:38:00,
2013-07-28 12:43:00,89.2,75.0,30.00,ESE,102,1.0,5.0,63,0.00,,SKC,0.00,VWS V14.01,2013-07-28 16:43:00,
2013-07-28 12:48:00,89.2,74.5,30.01,SE,125,1.0,6.0,62,0.00,,SKC,0.00,VWS V14.01,2013-07-28 16:48:00,
2013-07-28 12:53:00,89.1,74.9,30.00,ESE,117,0.0,6.0,63,0.00,,SKC,0.00,VWS V14.01,2013-07-28 16:53:00,
2013-07-28 12:58:00,90.6,76.3,30.00,SSW,213,1.0,6.0,63,0.00,,SKC,0.00,VWS V14.01,2013-07-28 16:58:00,
2013-07-28 13:03:00,91.1,76.3,30.00,South,175,3.0,4.0,62,0.00,,SKC,0.00,VWS V14.01,2013-07-28 17:03:00,
2013-07-28 13:08:00,91.3,75.5,30.00,SSE,163,3.0,8.0,60,0.00,,SKC,0.00,VWS V14.01,2013-07-28 17:08:00,
2013-07-28 13:13:00,91.0,76.2,30.00,West,261,7.0,8.0,62,0.00,,SKC,0.00,VWS V14.01,2013-07-28 17:13:00,
2013-07-28 13:18:00,90.5,75.7,30.00,WSW,241,4.0,11.0,62,0.00,,SKC,0.00,VWS V14.01,2013-07-28 17:18:00,
2013-07-28 13:23:00,90.5,76.2,30.00,SW,226,5.0,11.0,63,0.00,,SKC,0.00,VWS V14.01,2013-07-28 17:23:00,
2013-07-28 13:28:00,90.5,76.7,30.00,South,188,6.0,11.0,64,0.00,,SKC,0.00,VWS V14.01,2013-07-28 17:28:00,
2013-07-28 13:33:00,90.7,75.9,30.00,SSE,157,4.0,8.0,62,0.00,,SKC,0.00,VWS V14.01,2013-07-28 17:33:00,
2013-07-28 13:38:00,90.9,76.6,30.00,SSW,195,2.0,9.0,63,0.00,,SKC,0.00,VWS V14.01,2013-07-28 17:38:00,
2013-07-28 13:43:00,91.6,77.7,30.00,SSW,211,1.0,10.0,64,0.00,,SKC,0.00,VWS V14.01,2013-07-28 17:43:00,
2013-07-28 13:48:00,91.8,75.9,30.00,SW,232,6.0,10.0,60,0.00,,SKC,0.00,VWS V14.01,2013-07-28 17:48:00,
2013-07-28 13:53:00,92.1,75.7,30.00,SW,234,2.0,10.0,59,0.00,,SKC,0.00,VWS V14.01,2013-07-28 17:53:00,
2013-07-28 13:58:00,92.4,75.5,30.00,SW,217,5.0,10.0,58,0.00,,SKC,0.00,VWS V14.01,2013-07-28 17:58:00,
2013-07-28 14:03:00,92.7,77.3,30.00,SSW,200,2.0,7.0,61,0.00,,SKC,0.00,VWS V14.01,2013-07-28 18:03:00,
2013-07-28 14:08:00,92.7,76.3,30.00,SSE,148,3.0,8.0,59,0.00,,SKC,0.00,VWS V14.01,2013-07-28 18:08:00,
2013-07-28 14:13:00,92.3,75.9,30.00,WSW,246,1.0,8.0,59,0.00,,SKC,0.00,VWS V14.01,2013-07-28 18:13:00,
2013-07-28 14:18:00,92.2,75.8,30.00,SW,236,4.0,8.0,59,0.00,,SKC,0.00,VWS V14.01,2013-07-28 18:18:00,
2013-07-28 14:23:00,92.0,76.6,30.00,SW,227,4.0,11.0,61,0.00,,SKC,0.00,VWS V14.01,2013-07-28 18:23:00,
2013-07-28 14:28:00,92.0,76.1,29.99,SSE,149,6.0,11.0,60,0.00,,SKC,0.00,VWS V14.01,2013-07-28 18:28:00,
2013-07-28 14:33:00,91.8,75.4,29.99,SW,229,6.0,9.0,59,0.00,,SKC,0.00,VWS V14.01,2013-07-28 18:33:00,
2013-07-28 14:38:00,91.5,76.2,29.99,WSW,246,6.0,9.0,61,0.00,,SKC,0.00,VWS V14.01,2013-07-28 18:38:00,
2013-07-28 14:43:00,92.2,75.8,29.99,WSW,241,4.0,9.0,59,0.00,,SKC,0.00,VWS V14.01,2013-07-28 18:43:00,
2013-07-28 14:48:00,91.8,75.4,29.99,SW,221,4.0,9.0,59,0.00,,SKC,0.00,VWS V14.01,2013-07-28 18:48:00,
2013-07-28 14:53:00,91.8,74.9,29.99,SW,223,5.0,10.0,58,0.00,,SKC,0.00,VWS V14.01,2013-07-28 18:53:00,
2013-07-28 14:58:00,91.3,75.0,29.99,SW,214,4.0,10.0,59,0.00,,SKC,0.00,VWS V14.01,2013-07-28 18:58:00,
2013-07-28 15:03:00,92.0,75.6,29.99,SSW,209,6.0,9.0,59,0.00,,SKC,0.00,VWS V14.01,2013-07-28 19:03:00,
2013-07-28 15:08:00,92.3,74.9,29.98,SSW,195,4.0,12.0,57,0.00,,SKC,0.00,VWS V14.01,2013-07-28 19:08:00,
2013-07-28 15:13:00,92.1,74.7,29.98,SW,232,5.0,12.0,57,0.00,,SKC,0.00,VWS V14.01,2013-07-28 19:13:00,
2013-07-28 15:18:00,91.7,74.3,29.98,SW,214,4.0,12.0,57,0.00,,SKC,0.00,VWS V14.01,2013-07-28 19:18:00,
2013-07-28 15:23:00,91.3,75.0,29.98,SW,214,6.0,12.0,59,0.00,,SKC,0.00,VWS V14.01,2013-07-28 19:23:00,
2013-07-28 15:28:00,91.2,74.4,29.98,SW,227,1.0,12.0,58,0.00,,SKC,0.00,VWS V14.01,2013-07-28 19:28:00,
2013-07-28 15:33:00,91.0,75.7,29.99,WSW,251,10.0,11.0,61,0.00,,SKC,0.00,VWS V14.01,2013-07-28 19:33:00,
2013-07-28 15:38:00,91.7,73.8,29.98,WSW,239,8.0,11.0,56,0.00,,SKC,0.00,VWS V14.01,2013-07-28 19:38:00,
2013-07-28 15:43:00,91.8,74.9,29.98,WSW,246,6.0,11.0,58,0.00,,SKC,0.00,VWS V14.01,2013-07-28 19:43:00,
2013-07-28 15:48:00,91.3,75.0,29.98,SE,136,1.0,11.0,59,0.00,,SKC,0.00,VWS V14.01,2013-07-28 19:48:00,
2013-07-28 15:53:00,90.9,74.1,29.98,SW,236,6.0,12.0,58,0.00,,SKC,0.00,VWS V14.01,2013-07-28 19:53:00,
2013-07-28 15:58:00,90.5,74.2,29.98,SSW,204,4.0,12.0,59,0.00,,SKC,0.00,VWS V14.01,2013-07-28 19:58:00,
2013-07-28 16:03:00,90.4,74.1,29.98,SW,232,4.0,9.0,59,0.00,,SKC,0.00,VWS V14.01,2013-07-28 20:03:00,
2013-07-28 16:08:00,90.6,75.3,29.98,WSW,238,5.0,9.0,61,0.00,,SKC,0.00,VWS V14.01,2013-07-28 20:08:00,
2013-07-28 16:13:00,91.2,74.9,29.98,WSW,255,1.0,9.0,59,0.00,,SKC,0.00,VWS V14.01,2013-07-28 20:13:00,
2013-07-28 16:18:00,92.1,75.7,29.98,SW,233,1.0,9.0,59,0.00,,SKC,0.00,VWS V14.01,2013-07-28 20:18:00,
2013-07-28 16:23:00,93.0,75.5,29.99,SW,218,1.0,9.0,57,0.00,,SKC,0.00,VWS V14.01,2013-07-28 20:23:00,
2013-07-28 16:28:00,93.6,77.1,29.99,SSE,160,0.0,9.0,59,0.00,,SKC,0.00,VWS V14.01,2013-07-28 20:28:00,
2013-07-28 16:33:00,93.6,75.0,30.00,South,169,5.0,8.0,55,0.00,,SKC,0.00,VWS V14.01,2013-07-28 20:33:00,
2013-07-28 16:38:00,93.2,75.2,30.00,South,186,5.0,8.0,56,0.00,,SKC,0.00,VWS V14.01,2013-07-28 20:38:00,
2013-07-28 16:43:00,91.2,73.8,30.00,SE,146,4.0,12.0,57,0.00,,SKC,0.00,VWS V14.01,2013-07-28 20:43:00,
2013-07-28 16:48:00,89.0,72.8,30.00,East,98,5.0,12.0,59,0.00,,SKC,0.00,VWS V14.01,2013-07-28 20:48:00,
2013-07-28 16:53:00,87.3,72.7,30.00,SE,137,5.0,12.0,62,0.00,,SKC,0.00,VWS V14.01,2013-07-28 20:53:00,
2013-07-28 16:58:00,86.6,72.5,29.99,SE,139,4.0,12.0,63,0.00,,SKC,0.00,VWS V14.01,2013-07-28 20:58:00,
2013-07-28 17:03:00,86.9,73.3,29.99,SE,128,4.0,6.0,64,0.00,,SKC,0.00,VWS V14.01,2013-07-28 21:03:00,
2013-07-28 17:08:00,86.8,72.2,29.99,SSE,165,6.0,9.0,62,0.00,,SKC,0.00,VWS V14.01,2013-07-28 21:08:00,
2013-07-28 17:13:00,86.7,72.6,29.99,SSW,200,2.0,9.0,63,0.00,,SKC,0.00,VWS V14.01,2013-07-28 21:13:00,
2013-07-28 17:18:00,87.6,73.5,29.99,SSW,202,1.0,9.0,63,0.00,,SKC,0.00,VWS V14.01,2013-07-28 21:18:00,
2013-07-28 17:23:00,88.5,73.3,29.98,SSW,195,1.0,9.0,61,0.00,,SKC,0.00,VWS V14.01,2013-07-28 21:23:00,
2013-07-28 17:28:00,89.4,73.7,29.98,West,265,4.0,9.0,60,0.00,,SKC,0.00,VWS V14.01,2013-07-28 21:28:00,
2013-07-28 17:33:00,89.8,73.6,29.98,WSW,239,4.0,7.0,59,0.00,,SKC,0.00,VWS V14.01,2013-07-28 21:33:00,
2013-07-28 17:38:00,90.0,73.8,29.98,WSW,246,1.0,7.0,59,0.00,,SKC,0.00,VWS V14.01,2013-07-28 21:38:00,
2013-07-28 17:43:00,90.2,74.4,29.98,WSW,242,4.0,9.0,60,0.00,,SKC,0.00,VWS V14.01,2013-07-28 21:43:00,
2013-07-28 17:48:00,90.6,74.3,29.98,West,273,8.0,10.0,59,0.00,,SKC,0.00,VWS V14.01,2013-07-28 21:48:00,
2013-07-28 17:53:00,90.8,74.5,29.98,West,279,2.0,10.0,59,0.00,,SKC,0.00,VWS V14.01,2013-07-28 21:53:00,
2013-07-28 17:58:00,91.5,74.7,29.99,WNW,283,4.0,10.0,58,0.00,,SKC,0.00,VWS V14.01,2013-07-28 21:58:00,
2013-07-28 18:03:00,90.7,73.9,29.99,SSW,202,1.0,8.0,58,0.00,,SKC,0.00,VWS V14.01,2013-07-28 22:03:00,
2013-07-28 18:08:00,90.5,74.7,29.98,SSW,204,5.0,9.0,60,0.00,,SKC,0.00,VWS V14.01,2013-07-28 22:08:00,
2013-07-28 18:13:00,90.6,74.3,29.98,South,178,4.0,9.0,59,0.00,,SKC,0.00,VWS V14.01,2013-07-28 22:13:00,
2013-07-28 18:18:00,90.7,73.9,29.98,SW,236,3.0,9.0,58,0.00,,SKC,0.00,VWS V14.01,2013-07-28 22:18:00,
2013-07-28 18:23:00,90.6,74.3,29.98,WSW,250,7.0,10.0,59,0.00,,SKC,0.00,VWS V14.01,2013-07-28 22:23:00,
2013-07-28 18:28:00,90.7,73.9,29.98,West,272,6.0,10.0,58,0.00,,SKC,0.00,VWS V14.01,2013-07-28 22:28:00,
2013-07-28 18:33:00,90.9,73.6,29.98,SW,232,6.0,11.0,57,0.00,,SKC,0.00,VWS V14.01,2013-07-28 22:33:00,
2013-07-28 18:38:00,90.3,73.5,29.98,SW,223,1.0,11.0,58,0.00,,SKC,0.00,VWS V14.01,2013-07-28 22:38:00,
2013-07-28 18:43:00,89.9,73.2,29.98,SW,234,4.0,11.0,58,0.00,,SKC,0.00,VWS V14.01,2013-07-28 22:43:00,
2013-07-28 18:48:00,89.9,73.2,29.98,West,259,7.0,11.0,58,0.00,,SKC,0.00,VWS V14.01,2013-07-28 22:48:00,
2013-07-28 18:53:00,89.8,73.1,29.98,WSW,241,6.0,11.0,58,0.00,,SKC,0.00,VWS V14.01,2013-07-28 22:53:00,
2013-07-28 18:58:00,89.4,72.7,29.98,SSW,205,5.0,11.0,58,0.00,,SKC,0.00,VWS V14.01,2013-07-28 22:58:00,
2013-07-28 19:03:00,88.9,72.7,29.99,WSW,253,7.0,8.0,59,0.00,,SKC,0.00,VWS V14.01,2013-07-28 23:03:00,
2013-07-28 19:08:00,89.1,72.9,29.99,WSW,241,2.0,8.0,59,0.00,,SKC,0.00,VWS V14.01,2013-07-28 23:08:00,
2013-07-28 19:13:00,89.3,72.6,29.99,South,181,4.0,8.0,58,0.00,,SKC,0.00,VWS V14.01,2013-07-28 23:13:00,
2013-07-28 19:18:00,88.8,72.1,29.99,SSW,211,4.0,8.0,58,0.00,,SKC,0.00,VWS V14.01,2013-07-28 23:18:00,
2013-07-28 19:23:00,88.8,72.6,30.00,SW,232,4.0,8.0,59,0.00,,SKC,0.00,VWS V14.01,2013-07-28 23:23:00,
2013-07-28 19:28:00,88.7,73.0,30.00,SW,227,2.0,9.0,60,0.00,,SKC,0.00,VWS V14.01,2013-07-28 23:28:00,
2013-07-28 19:33:00,88.3,73.6,30.00,West,267,6.0,7.0,62,0.00,,SKC,0.00,VWS V14.01,2013-07-28 23:33:00,
2013-07-28 19:38:00,88.1,73.9,30.00,West,264,8.0,9.0,63,0.00,,SKC,0.00,VWS V14.01,2013-07-28 23:38:00,
2013-07-28 19:43:00,87.7,74.0,30.00,WSW,244,2.0,9.0,64,0.00,,SKC,0.00,VWS V14.01,2013-07-28 23:43:00,
2013-07-28 19:48:00,87.5,74.3,30.00,SSW,213,4.0,9.0,65,0.00,,SKC,0.00,VWS V14.01,2013-07-28 23:48:00,
2013-07-28 19:53:00,87.2,74.5,30.01,SW,233,4.0,9.0,66,0.00,,SKC,0.00,VWS V14.01,2013-07-28 23:53:00,
2013-07-28 19:58:00,86.8,74.5,30.01,West,259,5.0,9.0,67,0.00,,SKC,0.00,VWS V14.01,2013-07-28 23:58:00,
2013-07-28 20:03:00,86.2,74.4,30.01,WSW,244,3.0,6.0,68,0.00,,SKC,0.00,VWS V14.01,2013-07-29 00:03:00,
2013-07-28 20:08:00,85.7,73.9,30.02,SSW,207,1.0,6.0,68,0.00,,SKC,0.00,VWS V14.01,2013-07-29 00:08:00,
2013-07-28 20:13:00,85.4,74.1,30.02,SW,227,0.0,6.0,69,0.00,,SKC,0.00,VWS V14.01,2013-07-29 00:13:00,
2013-07-28 20:18:00,85.3,74.0,30.03,SW,229,1.0,6.0,69,0.00,,SKC,0.00,VWS V14.01,2013-07-29 00:18:00,
2013-07-28 20:23:00,85.1,73.8,30.03,WSW,254,1.0,6.0,69,0.00,,SKC,0.00,VWS V14.01,2013-07-29 00:23:00,
2013-07-28 20:28:00,85.0,73.7,30.03,WSW,237,0.0,6.0,69,0.00,,SKC,0.00,VWS V14.01,2013-07-29 00:28:00,
2013-07-28 20:33:00,84.9,73.6,30.03,WSW,239,1.0,2.0,69,0.00,,SKC,0.00,VWS V14.01,2013-07-29 00:33:00,
2013-07-28 20:38:00,84.6,73.7,30.03,SW,227,0.0,2.0,70,0.00,,SKC,0.00,VWS V14.01,2013-07-29 00:38:00,
2013-07-28 20:43:00,84.5,73.7,30.03,SW,227,0.0,3.0,70,0.00,,SKC,0.00,VWS V14.01,2013-07-29 00:43:00,
2013-07-28 20:48:00,84.4,73.6,30.03,WSW,249,0.0,3.0,70,0.00,,SKC,0.00,VWS V14.01,2013-07-29 00:48:00,
2013-07-28 20:53:00,84.6,73.3,30.03,West,261,0.0,3.0,69,0.00,,SKC,0.00,VWS V14.01,2013-07-29 00:53:00,
2013-07-28 20:58:00,84.7,73.4,30.04,WSW,237,0.0,3.0,69,0.00,,SKC,0.00,VWS V14.01,2013-07-29 00:58:00,
2013-07-28 21:03:00,84.6,73.7,30.04,West,265,0.0,1.0,70,0.00,,SKC,0.00,VWS V14.01,2013-07-29 01:03:00,
2013-07-28 21:08:00,84.5,73.7,30.04,West,276,1.0,4.0,70,0.00,,SKC,0.00,VWS V14.01,2013-07-29 01:08:00,
2013-07-28 21:13:00,84.3,73.9,30.04,West,277,0.0,4.0,71,0.00,,SKC,0.00,VWS V14.01,2013-07-29 01:13:00,
2013-07-28 21:18:00,84.1,73.7,30.04,West,277,0.0,4.0,71,0.00,,SKC,0.00,VWS V14.01,2013-07-29 01:18:00,
2013-07-28 21:23:00,84.1,74.1,30.04,West,277,0.0,4.0,72,0.00,,SKC,0.00,VWS V14.01,2013-07-29 01:23:00,
2013-07-28 21:28:00,84.2,74.2,30.05,WNW,284,0.0,4.0,72,0.00,,SKC,0.00,VWS V14.01,2013-07-29 01:28:00,
2013-07-28 21:33:00,83.7,74.1,30.05,ENE,67,4.0,6.0,73,0.00,,SKC,0.00,VWS V14.01,2013-07-29 01:33:00,
2013-07-28 21:38:00,83.3,74.2,30.04,NE,54,0.0,6.0,74,0.00,,SKC,0.00,VWS V14.01,2013-07-29 01:38:00,
2013-07-28 21:43:00,82.9,74.2,30.04,ENE,58,3.0,8.0,75,0.00,,SKC,0.00,VWS V14.01,2013-07-29 01:43:00,
2013-07-28 21:48:00,82.5,74.2,30.04,NE,45,4.0,9.0,76,0.00,,SKC,0.00,VWS V14.01,2013-07-29 01:48:00,
2013-07-28 21:54:00,82.2,74.3,30.04,East,95,7.0,9.0,77,0.00,,SKC,0.00,VWS V14.01,2013-07-29 01:54:00,
2013-07-28 21:59:00,82.0,74.1,30.04,East,81,1.0,9.0,77,0.00,,SKC,0.00,VWS V14.01,2013-07-29 01:59:00,
2013-07-28 22:04:00,81.7,73.8,30.04,ENE,61,7.0,11.0,77,0.00,,SKC,0.00,VWS V14.01,2013-07-29 02:04:00,
2013-07-28 22:09:00,81.2,73.7,30.04,ENE,75,6.0,11.0,78,0.00,,SKC,0.00,VWS V14.01,2013-07-29 02:09:00,
2013-07-28 22:14:00,80.9,73.4,30.05,NE,55,2.0,11.0,78,0.00,,SKC,0.00,VWS V14.01,2013-07-29 02:14:00,
2013-07-28 22:19:00,80.8,73.7,30.04,ENE,76,2.0,11.0,79,0.00,,SKC,0.00,VWS V14.01,2013-07-29 02:19:00,
2013-07-28 22:24:00,80.6,73.5,30.05,ENE,76,2.0,11.0,79,0.00,,SKC,0.00,VWS V14.01,2013-07-29 02:24:00,
2013-07-28 22:29:00,80.5,73.4,30.05,East,101,2.0,11.0,79,0.00,,SKC,0.00,VWS V14.01,2013-07-29 02:29:00,
2013-07-28 22:34:00,80.5,73.4,30.05,NE,56,3.0,8.0,79,0.00,,SKC,0.00,VWS V14.01,2013-07-29 02:34:00,
2013-07-28 22:39:00,80.3,73.2,30.05,SE,136,5.0,8.0,79,0.00,,SKC,0.00,VWS V14.01,2013-07-29 02:39:00,
2013-07-28 22:44:00,80.2,73.5,30.05,SE,125,0.0,8.0,80,0.00,,SKC,0.00,VWS V14.01,2013-07-29 02:44:00,
2013-07-28 22:49:00,80.1,73.4,30.05,ENE,65,8.0,9.0,80,0.00,,SKC,0.00,VWS V14.01,2013-07-29 02:49:00,
2013-07-28 22:54:00,79.9,73.2,30.04,SE,145,4.0,9.0,80,0.00,,SKC,0.00,VWS V14.01,2013-07-29 02:54:00,
2013-07-28 22:59:00,79.8,73.4,30.05,East,101,0.0,9.0,81,0.00,,SKC,0.00,VWS V14.01,2013-07-29 02:59:00,
2013-07-28 23:04:00,79.7,73.4,30.05,East,96,2.0,4.0,81,0.00,,SKC,0.00,VWS V14.01,2013-07-29 03:04:00,
2013-07-28 23:09:00,79.5,73.5,30.05,ENE,60,1.0,6.0,82,0.00,,SKC,0.00,VWS V14.01,2013-07-29 03:09:00,
2013-07-28 23:14:00,79.4,73.4,30.05,East,81,1.0,6.0,82,0.00,,SKC,0.00,VWS V14.01,2013-07-29 03:14:00,
2013-07-28 23:19:00,79.4,73.4,30.05,ESE,111,0.0,6.0,82,0.00,,SKC,0.00,VWS V14.01,2013-07-29 03:19:00,
2013-07-28 23:24:00,79.3,73.3,30.05,East,97,2.0,6.0,82,0.00,,SKC,0.00,VWS V14.01,2013-07-29 03:24:00,
2013-07-28 23:30:00,79.3,73.7,30.05,ESE,110,1.0,5.0,83,0.00,,SKC,0.00,VWS V14.01,2013-07-29 03:30:00,
2013-07-28 23:35:00,79.2,73.6,30.05,East,81,3.0,5.0,83,0.00,,SKC,0.00,VWS V14.01,2013-07-29 03:35:00,
2013-07-28 23:40:00,79.1,73.5,30.05,SE,133,0.0,5.0,83,0.00,,SKC,0.00,VWS V14.01,2013-07-29 03:40:00,
2013-07-28 23:45:00,79.0,73.4,30.04,SE,128,0.0,5.0,83,0.00,,SKC,0.00,VWS V14.01,2013-07-29 03:45:00,
2013-07-28 23:50:00,78.9,73.7,30.04,SE,134,0.0,5.0,84,0.00,,SKC,0.00,VWS V14.01,2013-07-29 03:50:00,
2013-07-28 23:55:00,78.8,73.6,30.04,ESE,121,0.0,5.0,84,0.00,,SKC,0.00,VWS V14.01,2013-07-29 03:55:00,